DW8004 Weather Reports


Display with metric or nautical units.
time (UTC)temp
F
wind
direction
speed
MPH
gust
MPH
rain 1hr
in
rain 24hr
in
rain mn
in
humidity
%
barometer
mb
20260831194519 71 246 0.0 0.0 0.00 0.00 0.00 72 1017.3
20260831193041 72 232 0.0 0.0 0.00 0.00 0.00 69 1017.5
20260831191548 72 245 0.0 0.0 0.00 0.00 0.00 64 1017.7
20260831190110 72 225 0.0 0.0 0.00 0.00 0.00 65 1017.6
20260831184631 71 224 0.0 0.0 0.00 0.00 0.00 67 1017.9
20260831183043 71 252 0.0 0.0 0.00 0.00 0.00 71 1018.2
20260831181521 72 252 0.0 0.0 0.00 0.00 0.00 64 1018.2
20260831180112 72 290 0.0 0.0 0.00 0.00 0.00 66 1018.1
20260831174612 72 138 0.0 0.0 0.00 0.00 0.00 65 1018.1
20260831173103 71 119 0.0 0.0 0.00 0.00 0.00 67 1018.4
20260831171538 71 227 0.0 0.0 0.00 0.00 0.00 65 1018.5
20260831170013 71 163 0.0 0.0 0.00 0.00 0.00 65 1018.7
20260831164532 71 103 0.0 0.0 0.00 0.00 0.00 64 1018.9
20260831163031 71 105 0.0 0.0 0.00 0.00 0.00 65 1019.0
20260831161511 71 213 0.0 0.0 0.00 0.00 0.00 65 1019.2
20260831160029 71 81 0.0 0.0 0.00 0.00 0.00 64 1019.4
20260831154545 70 76 0.0 0.0 0.00 0.00 0.00 65 1019.4
20260831153044 70 94 0.0 0.0 0.00 0.00 0.00 63 1019.5
20260831151555 70 136 0.0 0.0 0.00 0.00 0.00 66 1019.4
20260831150028 70 101 0.0 0.0 0.00 0.00 0.00 66 1019.3
20260831144517 70 101 0.0 0.0 0.00 0.00 0.00 70 1019.6
20260831143004 69 172 0.0 0.0 0.00 0.00 0.00 68 1019.6
20260831141601 69 142 0.0 0.0 0.00 0.00 0.00 72 1019.6
20260831140052 68 144 0.0 0.0 0.00 0.00 0.00 75 1019.7
20260831134558 67 111 0.0 0.0 0.00 0.00 0.00 76 1019.6
20260831133100 67 151 0.0 0.0 0.00 0.00 0.00 78 1019.7
20260831131543 65 150 0.0 0.0 0.00 0.00 0.00 81 1019.7
20260831130047 64 150 0.0 0.0 0.00 0.00 0.00 86 1019.8
20260831124534 63 150 0.0 0.0 0.00 0.00 0.00 87 1019.9
20260831123044 63 150 0.0 0.0 0.00 0.00 0.00 87 1019.9
20260831121537 61 150 0.0 0.0 0.00 0.00 0.00 91 1019.8
20260831120050 59 150 0.0 0.0 0.00 0.00 0.00 95 1019.8
20260831114548 56 150 0.0 0.0 0.00 0.00 0.00 97 1019.7
20260831113032 53 150 0.0 0.0 0.00 0.00 0.00 97 1019.6
20260831111605 52 150 0.0 0.0 0.00 0.00 0.00 97 1019.3
20260831110038 52 150 0.0 0.0 0.00 0.00 0.00 97 1019.1
20260831104548 52 150 0.0 0.0 0.00 0.00 0.00 97 1019.0
20260831103040 52 150 0.0 0.0 0.00 0.00 0.00 96 1019.0
20260831101555 52 150 0.0 0.0 0.00 0.00 0.00 96 1018.9
20260831100053 53 150 0.0 0.0 0.00 0.00 0.00 96 1018.8
20260831094538 53 150 0.0 0.0 0.00 0.00 0.00 96 1018.8
20260831093029 53 150 0.0 0.0 0.00 0.00 0.00 96 1018.7
20260831091603 54 150 0.0 0.0 0.00 0.00 0.00 96 1018.5
20260831090131 54 150 0.0 0.0 0.00 0.00 0.00 96 1018.4
20260831084559 54 150 0.0 0.0 0.00 0.00 0.00 95 1018.5
20260831083047 55 150 0.0 0.0 0.00 0.00 0.00 95 1018.4
20260831081628 55 150 0.0 0.0 0.00 0.00 0.00 96 1018.1
20260831080031 56 150 0.0 0.0 0.00 0.00 0.00 96 1018.1
20260831074544 56 150 0.0 0.0 0.00 0.00 0.00 96 1017.9
20260831073100 56 150 0.0 0.0 0.00 0.00 0.00 96 1018.0
20260831071502 56 150 0.0 0.0 0.00 0.00 0.00 96 1018.0
20260831070107 56 150 0.0 0.0 0.00 0.00 0.00 96 1017.9
20260831064609 57 150 0.0 0.0 0.00 0.00 0.00 95 1017.8
20260831063057 57 150 0.0 0.0 0.00 0.00 0.00 95 1017.6
20260831061540 57 150 0.0 0.0 0.00 0.00 0.00 95 1017.6
20260831060041 57 150 0.0 0.0 0.00 0.00 0.00 95 1017.7
20260831054528 58 162 0.0 0.0 0.00 0.00 0.00 94 1017.6
20260831053036 58 162 0.0 0.0 0.00 0.00 0.00 94 1017.5
20260831051510 58 201 0.0 0.0 0.00 0.00 0.00 94 1017.4
20260831050036 59 201 0.0 0.0 0.00 0.00 0.00 94 1017.4
20260831044532 59 204 0.0 0.0 0.00 0.00 0.00 94 1017.2
20260831043044 60 204 0.0 0.0 0.00 0.00 0.00 93 1017.2
20260831041529 60 205 0.0 0.0 0.00 0.00 0.00 93 1017.2
20260831040038 61 242 0.0 0.0 0.00 0.00 0.00 92 1017.3
20260831034634 61 242 0.0 0.0 0.00 0.00 0.00 91 1017.3
20260831033103 61 264 0.0 0.0 0.00 0.00 0.00 91 1017.5
20260831031522 62 86 0.0 0.0 0.00 0.00 0.00 91 1017.7
20260831030132 62 84 0.0 0.0 0.00 0.00 0.00 91 1018.0
20260831024607 62 84 0.0 0.0 0.00 0.00 0.00 90 1017.9
20260831023108 62 84 0.0 0.0 0.00 0.00 0.00 90 1017.9
20260831021552 62 84 0.0 0.0 0.00 0.00 0.00 89 1017.4
20260831020050 63 221 0.0 0.0 0.00 0.00 0.00 89 1017.4
20260831014547 63 360 0.0 0.0 0.00 0.00 0.00 89 1017.3
20260831013039 63 237 0.0 0.0 0.00 0.00 0.00 88 1017.4
20260831011540 63 234 0.0 0.0 0.00 0.00 0.00 88 1017.4
20260831010130 64 196 0.0 0.0 0.00 0.00 0.00 88 1017.2
20260831004558 63 105 0.0 0.0 0.00 0.00 0.00 88 1017.0
20260831003045 63 211 0.0 0.0 0.00 0.00 0.00 88 1016.5
20260831001518 63 278 0.0 0.0 0.00 0.00 0.00 89 1016.1
20260831000023 63 223 0.0 0.0 0.00 0.00 0.00 89 1015.9
20260830234530 63 231 0.0 0.0 0.00 0.00 0.00 88 1015.6
20260830233004 64 244 0.0 0.0 0.00 0.00 0.00 86 1015.9
20260830231549 65 209 0.0 0.0 0.00 0.00 0.00 86 1016.1
20260830230030 66 229 0.0 0.0 0.00 0.00 0.00 84 1016.0
20260830224632 66 269 0.0 0.0 0.00 0.00 0.00 84 1016.2
20260830223104 67 229 0.0 0.0 0.00 0.00 0.00 85 1016.0
20260830221551 67 227 0.0 0.0 0.00 0.00 0.00 84 1016.1
20260830220053 68 227 0.0 0.0 0.00 0.00 0.00 83 1016.0
20260830214504 68 210 0.0 0.0 0.00 0.00 0.00 83 1015.9
20260830213030 68 192 0.0 0.0 0.00 0.00 0.00 81 1015.9
20260830211634 69 248 0.0 0.0 0.00 0.00 0.00 79 1015.9
20260830210046 70 229 0.0 0.0 0.00 0.00 0.00 79 1016.0
20260830204523 70 244 0.0 0.0 0.00 0.00 0.00 77 1016.2
20260830203034 71 232 0.0 0.0 0.00 0.00 0.00 77 1016.2
20260830201512 70 247 0.0 0.0 0.00 0.00 0.00 78 1016.3